Regional Weather Roundup
Issued by NWS

Home | Current Version | Previous Version | Graphics & Text | Print | Product List | Glossary On
Versions: 1 2 3 4 5 6 7 8 9 10 11 12 13 14 15 16 17 18 19 20 21 22 23 24 25 26 27 28 29 30 31 32 33 34 35 36 37 38 39 40 41 42 43 44 45 46 47 48
000
ASUS45 KBOU 250510
RWRCO

WEATHER ROUNDUP FOR COLORADO
NATIONAL WEATHER SERVICE PUEBLO CO
1100 PM MDT TUE APR 24 2018

NOTE: "FAIR" INDICATES FEW OR NO CLOUDS BELOW 12000 FEET WITH NO
SIGNIFICANT WEATHER AND/OR OBSTRUCTIONS TO VISIBILITY.

COZ001>005-013-030-031-250600-
...NORTHWEST COLORADO...

CITY           SKY/WX    TMP DP  RH WIND       PRES   REMARKS
CRAIG          CLEAR     31  22  69 SW8       30.40R WCI  23
HAYDEN         CLEAR     33  20  58 W8        30.41R WCI  26
MEEKER         CLEAR     35  21  56 NE8       30.40S WCI  29
RABBIT EARS PA NOT AVBL
STEAMBOAT SPGS FAIR      34  22  61 SE7       30.38S WCI  28
WALDEN         FAIR      21  14  73 CALM      30.42S
$$

COZ006>008-011-250600-
...WEST CENTRAL VALLEYS...

CITY           SKY/WX    TMP DP  RH WIND       PRES   REMARKS
GRAND JUNCTION CLEAR     50  21  32 NE16      30.32R
MONTROSE       CLEAR     48  16  27 NW13      30.32R
EAGLE          CLEAR     40  20  44 E3        30.37R
RIFLE          CLEAR     45  23  42 NW13      30.36S
DELTA          NOT AVBL
NUCLA          FAIR      46  10  23 SE3       30.32R
$$

COZ017>023-064>068-250600-
...SOUTHWEST COLORADO...

CITY           SKY/WX    TMP DP  RH WIND       PRES   REMARKS
DURANGO        CLEAR     55  25  31 N9        30.16R
CORTEZ         CLEAR     53  19  26 NE5       30.19R
PAGOSA SPRINGS FAIR      44  24  44 CALM      30.22R
TELLURIDE      CLEAR     39  19  44 CALM      30.38R
WOLF CREEK PAS MOCLDY    32  21  64 CALM      30.45S
$$

COZ009-010-012-014-032>034-037-058>063-250600-
...CENTRAL COLORADO...

CITY           SKY/WX    TMP DP  RH WIND       PRES   REMARKS
ASPEN          PTCLDY    36  19  50 W3        30.35R
BUENA VISTA    CLOUDY    31  29  91 SE6       30.40S WCI  25
COPPER MTN     NOT AVBL
BERTHOUD PASS  CLOUDY    14   5  67 NW15G23   30.38S WCI  -1
COTTONWOOD PAS FOG       32  30  93 CALM      30.39F VSB 3/4
GUNNISON       CLEAR     38  17  42 CALM      30.31R
KREMMLING      PTCLDY    37  27  65 NW3       30.41R
LEADVILLE      CLOUDY    24  24 100 S9        30.37R FOG     WCI  14
MONARCH PASS   CLEAR     25  14  63 W12       30.49F WCI  14
SALIDA         CLOUDY    32  29  89 SE6       30.48S WCI  26
SUNLIGHT       CLEAR     23  14  68 W9        30.44F WCI  13
WILKERSON PASS CLOUDY   N/A N/A N/A CALM      30.41F
$$

COZ069>075-250600-
...SAN LUIS VALLEY/SANGRE DE CRISTO MOUNTAINS...

CITY           SKY/WX    TMP DP  RH WIND       PRES   REMARKS
ALAMOSA        PTCLDY    35  25  66 SE13      30.27R WCI  26
DEL NORTE      FAIR      37  26  65 N3        30.28S
LA VETA PASS   CLOUDY    21  19  93 MISG      30.49R FOG
SAGUACHE       NOT AVBL
$$

COZ035-036-038>040-250600-
...NORTHERN COLORADO FRONT RANGE...

CITY           SKY/WX    TMP DP  RH WIND       PRES   REMARKS
DENVER INTL AP CLOUDY    37  28  70 NE3       30.44S
DMNS CITY PARK NOT AVBL
AURORA         NOT AVBL
FRONT RANGE AP CLOUDY    37  32  79 CALM      30.45S
ERIE MUNI ARPT CLOUDY    38  35  87 CALM      30.51R
BOULDER MUN AP CLOUDY    37  32  81 CALM      30.44S
CENTENNIAL     CLOUDY    33  32  96 W6        30.44S FOG     WCI  28
BROOMFIELD     CLOUDY    36  34  93 CALM      30.45S
LOVELAND       CLOUDY    38  29  70 SE5       30.46S
LONGMONT       CLOUDY    40  35  81 CALM      30.47S
$$

COZ041-046-047-076>085-087-088-250600-
...PIKES PEAK/PALMER DIVIDE AND SOUTHERN FOOTHILLS...

CITY           SKY/WX    TMP DP  RH WIND       PRES   REMARKS
COLO. SPRINGS  CLOUDY    34  30  85 N9        30.42F WCI  27
A. F. ACADEMY  NOT AVBL
SCHRIEVER AFB  NOT AVBL
CHEYENNE MTN   NOT AVBL
ELLICOTT         N/A    N/A N/A N/A CALM      30.41F
FALCON         MIX PCPN  32  29  92 N9        30.42F WCI  24
FORT CARSON    NOT AVBL
LIMON          MOCLDY    32  30  92 N7        30.42S WCI  26
MONUMENT HILL  CLOUDY    30  28  93 NW8       30.43F FOG     WCI  23
CANON CITY     CLOUDY    34  34 100 CALM      30.43F
WALSENBURG       N/A     34  32  93 CALM      30.43F
TRINIDAD       CLOUDY    34  31  88 N5        30.43F WCI  30
$$

COZ042>045-048>051-090-091-250600-
...NORTHEAST COLORADO...

CITY           SKY/WX    TMP DP  RH WIND       PRES   REMARKS
GREELEY ARPT   CLOUDY    39  28  64 SW3       30.46S
AKRON          CLOUDY    35  30  82 N6        30.42F WCI  30
BURLINGTON     CLOUDY    36  33  89 N12       30.39F
WRAY           MOCLDY    36  32  87 N6        30.43S
YUMA           NOT AVBL
STERLING       NOT AVBL
HOLYOKE        FAIR      37  32  81 N12       30.43S
FORT MORGAN    CLOUDY    33  26  76 NW8       30.45S WCI  26
$$

COZ086-089-092>099-250600-
...SOUTHEAST COLORADO...

CITY           SKY/WX    TMP DP  RH WIND       PRES   REMARKS
PUEBLO         CLOUDY    37  35  92 CALM      30.44F
LA JUNTA       CLOUDY    39  36  89 W9        30.44R
LAMAR          CLOUDY    39  36  89 W8        30.40S
SPRINGFIELD      N/A     34  33  96 N18       30.37F WCI  23
$$





USA.gov is the U.S. government's official web portal to all federal, state and local government web resources and services.